PIMOHWEATHER Station Historical Data
Daily Summary for June 08, 2020 Units:  Metric    English   Both
Daily Weekly Monthly Yearly
  High: Low: Average:
Temperature: 36.0 °C 28.0 °C 31.5 °C
Dew Point: 28.0 °C 25.0 °C 26 °C
Humidity: 85% 62% 74%
Wind Speed: 19km/h 0km/h 4.3km/h
Wind Gust: 28km/h - -
Wind- - SE
Pressure: 1009.5 hPa 1004.7 hPa -
Precipitation: 0.00 mm    
 
 
Tabular Data for June 08, 2020
Time Temperature Dew Point Pressure Wind Wind Speed Wind Gust Humidity Rainfall Rate (Hourly) solar
00:04 28.0 °C 25.0 °C 1007.1 hPa Calm     84% 0.00 mm 0.00 W/m2
00:09 28.0 °C 25.0 °C 1007.1 hPa Calm     84% 0.00 mm 0.00 W/m2
00:14 28.0 °C 25.0 °C 1006.9 hPa Calm   4 km/h 83% 0.00 mm 0.00 W/m2
00:19 28.0 °C 25.0 °C 1006.7 hPa SSW 2 km/h 4 km/h 83% 0.00 mm 0.00 W/m2
00:24 28.0 °C 25.0 °C 1006.7 hPa Calm   4 km/h 82% 0.00 mm 0.00 W/m2
00:29 28.0 °C 25.0 °C 1006.7 hPa ESE 6 km/h 12 km/h 82% 0.00 mm 0.00 W/m2
00:34 28.0 °C 25.0 °C 1006.9 hPa ESE 3 km/h 4 km/h 82% 0.00 mm 0.00 W/m2
00:39 29.0 °C 25.0 °C 1006.8 hPa Calm     81% 0.00 mm 0.00 W/m2
00:44 29.0 °C 25.0 °C 1006.7 hPa Calm     81% 0.00 mm 0.00 W/m2
00:49 29.0 °C 25.0 °C 1006.7 hPa Calm     81% 0.00 mm 0.00 W/m2
00:54 29.0 °C 25.0 °C 1006.6 hPa Calm     81% 0.00 mm 0.00 W/m2
00:59 29.0 °C 25.0 °C 1006.4 hPa Calm     80% 0.00 mm 0.00 W/m2
01:04 29.0 °C 25.0 °C 1006.3 hPa Calm     81% 0.00 mm 0.00 W/m2
01:09 29.0 °C 25.0 °C 1006.3 hPa Calm     80% 0.00 mm 0.00 W/m2
01:14 29.0 °C 25.0 °C 1006.1 hPa Calm     80% 0.00 mm 0.00 W/m2
01:19 29.0 °C 25.0 °C 1006.3 hPa Calm     80% 0.00 mm 0.00 W/m2
01:24 29.0 °C 25.0 °C 1006.4 hPa Calm     80% 0.00 mm 0.00 W/m2
01:29 29.0 °C 25.0 °C 1006.4 hPa Calm     80% 0.00 mm 0.00 W/m2
01:34 29.0 °C 25.0 °C 1006.5 hPa Calm     80% 0.00 mm 0.00 W/m2
01:39 29.0 °C 25.0 °C 1006.2 hPa East 1 km/h 4 km/h 80% 0.00 mm 0.00 W/m2
01:44 29.0 °C 25.0 °C 1006.2 hPa Calm     80% 0.00 mm 0.00 W/m2
01:49 29.0 °C 25.0 °C 1006.4 hPa Calm     80% 0.00 mm 0.00 W/m2
01:53 29.0 °C 25.0 °C 1006.4 hPa Calm     80% 0.00 mm 0.00 W/m2
01:56 29.0 °C 25.0 °C 1006.3 hPa Calm     79% 0.00 mm 0.00 W/m2
02:04 29.0 °C 25.0 °C 1006.4 hPa Calm     80% 0.00 mm 0.00 W/m2
02:09 29.0 °C 25.0 °C 1006.5 hPa Calm     80% 0.00 mm 0.00 W/m2
02:14 29.0 °C 25.0 °C 1006.6 hPa Calm     79% 0.00 mm 0.00 W/m2
02:19 29.0 °C 25.0 °C 1006.4 hPa Calm     80% 0.00 mm 0.00 W/m2
02:24 29.0 °C 25.0 °C 1006.6 hPa Calm     80% 0.00 mm 0.00 W/m2
02:29 29.0 °C 25.0 °C 1006.5 hPa Calm     80% 0.00 mm 0.00 W/m2
02:34 29.0 °C 25.0 °C 1006.5 hPa Calm     79% 0.00 mm 0.00 W/m2
02:39 29.0 °C 25.0 °C 1006.4 hPa Calm     80% 0.00 mm 0.00 W/m2
02:44 29.0 °C 25.0 °C 1006.6 hPa Calm     80% 0.00 mm 0.00 W/m2
02:49 29.0 °C 25.0 °C 1006.6 hPa Calm     80% 0.00 mm 0.00 W/m2
02:54 29.0 °C 25.0 °C 1006.7 hPa Calm     82% 0.00 mm 0.00 W/m2
02:59 28.0 °C 25.0 °C 1006.7 hPa Calm     82% 0.00 mm 0.00 W/m2
03:04 28.0 °C 25.0 °C 1006.5 hPa Calm     82% 0.00 mm 0.00 W/m2
03:09 28.0 °C 25.0 °C 1006.4 hPa Calm     84% 0.00 mm 0.00 W/m2
03:14 28.0 °C 25.0 °C 1006.4 hPa Calm     84% 0.00 mm 0.00 W/m2
03:19 28.0 °C 25.0 °C 1006.4 hPa Calm     85% 0.00 mm 0.00 W/m2
03:24 28.0 °C 25.0 °C 1006.4 hPa Calm     85% 0.00 mm 0.00 W/m2
03:29 28.0 °C 25.0 °C 1006.5 hPa Calm     85% 0.00 mm 0.00 W/m2
03:34 28.0 °C 26.0 °C 1006.5 hPa Calm     84% 0.00 mm 0.00 W/m2
03:39 28.0 °C 26.0 °C 1006.6 hPa Calm     84% 0.00 mm 0.00 W/m2
03:44 28.0 °C 25.0 °C 1006.7 hPa Calm     83% 0.00 mm 0.00 W/m2
03:49 29.0 °C 25.0 °C 1006.7 hPa Calm     83% 0.00 mm 0.00 W/m2
03:54 29.0 °C 25.0 °C 1006.5 hPa Calm     83% 0.00 mm 0.00 W/m2
03:59 29.0 °C 25.0 °C 1006.7 hPa Calm     83% 0.00 mm 0.00 W/m2
04:04 28.0 °C 25.0 °C 1006.7 hPa Calm     83% 0.00 mm 0.00 W/m2
04:09 28.0 °C 25.0 °C 1006.8 hPa Calm     84% 0.00 mm 0.00 W/m2
04:14 28.0 °C 25.0 °C 1006.8 hPa Calm     83% 0.00 mm 0.00 W/m2
04:19 28.0 °C 25.0 °C 1006.8 hPa Calm     83% 0.00 mm 0.00 W/m2
04:24 29.0 °C 25.0 °C 1006.8 hPa Calm     83% 0.00 mm 0.00 W/m2
04:29 29.0 °C 25.0 °C 1006.8 hPa Calm     83% 0.00 mm 0.00 W/m2
04:34 29.0 °C 25.0 °C 1006.6 hPa Calm     83% 0.00 mm 0.00 W/m2
04:39 29.0 °C 25.0 °C 1006.7 hPa Calm     83% 0.00 mm 0.00 W/m2
04:44 29.0 °C 25.0 °C 1006.6 hPa Calm     83% 0.00 mm 0.00 W/m2
04:49 29.0 °C 26.0 °C 1006.8 hPa Calm     83% 0.00 mm 0.00 W/m2
04:54 29.0 °C 25.0 °C 1006.9 hPa Calm     83% 0.00 mm 0.00 W/m2
04:59 29.0 °C 26.0 °C 1006.8 hPa Calm     84% 0.00 mm 0.00 W/m2
05:04 29.0 °C 26.0 °C 1006.8 hPa Calm     84% 0.00 mm 0.00 W/m2
05:09 29.0 °C 26.0 °C 1006.8 hPa Calm     85% 0.00 mm 0.00 W/m2
05:14 29.0 °C 26.0 °C 1006.7 hPa Calm     85% 0.00 mm 0.00 W/m2
05:19 29.0 °C 26.0 °C 1006.7 hPa Calm     85% 0.00 mm 0.00 W/m2
05:24 29.0 °C 26.0 °C 1006.7 hPa Calm     85% 0.00 mm 0.00 W/m2
05:29 29.0 °C 26.0 °C 1006.6 hPa Calm     85% 0.00 mm 0.00 W/m2
05:34 29.0 °C 26.0 °C 1006.8 hPa Calm     85% 0.00 mm 2.26 W/m2
05:39 29.0 °C 26.0 °C 1006.7 hPa Calm     85% 0.00 mm 5.55 W/m2
05:44 29.0 °C 26.0 °C 1006.9 hPa Calm     85% 0.00 mm 9.72 W/m2
05:49 29.0 °C 26.0 °C 1006.8 hPa Calm     85% 0.00 mm 14.00 W/m2
05:54 29.0 °C 26.0 °C 1006.9 hPa Calm     84% 0.00 mm 19.87 W/m2
05:59 29.0 °C 26.0 °C 1007.1 hPa Calm     84% 0.00 mm 24.11 W/m2
06:04 29.0 °C 26.0 °C 1007.1 hPa Calm     84% 0.00 mm 29.01 W/m2
06:09 29.0 °C 26.0 °C 1007.1 hPa Calm     83% 0.00 mm 34.48 W/m2
06:14 29.0 °C 26.0 °C 1007.3 hPa Calm     83% 0.00 mm 39.88 W/m2
06:19 29.0 °C 26.0 °C 1007.3 hPa Calm     83% 0.00 mm 45.10 W/m2
06:24 29.0 °C 26.0 °C 1007.3 hPa Calm     83% 0.00 mm 50.13 W/m2
06:29 29.0 °C 26.0 °C 1007.2 hPa Calm     82% 0.00 mm 55.62 W/m2
06:34 29.0 °C 26.0 °C 1007.4 hPa Calm     82% 0.00 mm 62.36 W/m2
06:39 30.0 °C 26.0 °C 1007.4 hPa Calm     82% 0.00 mm 70.28 W/m2
06:44 30.0 °C 26.0 °C 1007.4 hPa Calm     82% 0.00 mm 81.40 W/m2
06:49 30.0 °C 26.0 °C 1007.5 hPa Calm     81% 0.00 mm 91.55 W/m2
06:54 30.0 °C 26.0 °C 1007.6 hPa Calm     81% 0.00 mm 102.73 W/m2
06:59 30.0 °C 26.0 °C 1007.7 hPa Calm     80% 0.00 mm 113.08 W/m2
07:04 30.0 °C 26.0 °C 1007.7 hPa Calm     80% 0.00 mm 114.06 W/m2
07:09 30.0 °C 26.0 °C 1007.6 hPa Calm     80% 0.00 mm 122.94 W/m2
07:14 30.0 °C 26.0 °C 1007.6 hPa Calm     80% 0.00 mm 155.56 W/m2
07:19 30.0 °C 26.0 °C 1007.5 hPa Calm     80% 0.00 mm 166.96 W/m2
07:24 30.0 °C 26.0 °C 1007.7 hPa Calm     80% 0.00 mm 172.61 W/m2
07:29 31.0 °C 26.0 °C 1007.7 hPa Calm     80% 0.00 mm 174.67 W/m2
07:34 31.0 °C 27.0 °C 1007.7 hPa Calm     79% 0.00 mm 183.45 W/m2
07:39 31.0 °C 27.0 °C 1007.8 hPa Calm     79% 0.00 mm 197.64 W/m2
07:44 31.0 °C 27.0 °C 1007.7 hPa Calm     79% 0.00 mm 220.57 W/m2
07:49 31.0 °C 27.0 °C 1007.8 hPa Calm     79% 0.00 mm 229.08 W/m2
07:54 32.0 °C 27.0 °C 1007.8 hPa Calm     78% 0.00 mm 265.95 W/m2
07:59 32.0 °C 27.0 °C 1007.8 hPa Calm     76% 0.00 mm 283.94 W/m2
08:04 32.0 °C 27.0 °C 1008.0 hPa Calm     76% 0.00 mm 287.41 W/m2
08:09 32.0 °C 27.0 °C 1008.0 hPa Calm     75% 0.00 mm 307.38 W/m2
08:14 32.0 °C 27.0 °C 1008.1 hPa Calm     74% 0.00 mm 318.75 W/m2
08:19 32.0 °C 27.0 °C 1008.1 hPa Calm     73% 0.00 mm 327.10 W/m2
08:24 33.0 °C 27.0 °C 1008.1 hPa ENE 1 km/h 8 km/h 72% 0.00 mm 351.88 W/m2
08:29 33.0 °C 27.0 °C 1008.2 hPa ENE 3 km/h 8 km/h 72% 0.00 mm 366.73 W/m2
08:34 33.0 °C 27.0 °C 1008.4 hPa NNE 5 km/h 8 km/h 71% 0.00 mm 364.14 W/m2
08:39 33.0 °C 27.0 °C 1008.3 hPa Calm     71% 0.00 mm 357.39 W/m2
08:44 33.0 °C 27.0 °C 1008.3 hPa ENE 12 km/h 16 km/h 71% 0.00 mm 338.18 W/m2
08:49 33.0 °C 27.0 °C 1008.4 hPa NNE 6 km/h 8 km/h 71% 0.00 mm 335.12 W/m2
08:54 33.0 °C 27.0 °C 1008.5 hPa Calm   4 km/h 70% 0.00 mm 360.40 W/m2
08:59 33.0 °C 27.0 °C 1008.6 hPa Calm     70% 0.00 mm 365.27 W/m2
09:04 33.0 °C 27.0 °C 1008.6 hPa NE 10 km/h 12 km/h 68% 0.00 mm 368.42 W/m2
09:09 33.0 °C 26.0 °C 1008.5 hPa NE 4 km/h 12 km/h 68% 0.00 mm 369.87 W/m2
09:14 33.0 °C 26.0 °C 1008.6 hPa NE 6 km/h 12 km/h 70% 0.00 mm 352.20 W/m2
09:19 33.0 °C 26.0 °C 1008.5 hPa Calm   4 km/h 68% 0.00 mm 352.79 W/m2
09:24 33.0 °C 26.0 °C 1008.4 hPa NNW 3 km/h 8 km/h 69% 0.00 mm 352.91 W/m2
09:29 33.0 °C 27.0 °C 1008.5 hPa NNE 5 km/h 12 km/h 69% 0.00 mm 337.47 W/m2
09:34 33.0 °C 26.0 °C 1008.6 hPa NNE 8 km/h 16 km/h 70% 0.00 mm 346.30 W/m2
09:39 32.0 °C 26.0 °C 1008.4 hPa NNE 12 km/h 12 km/h 71% 0.00 mm 323.62 W/m2
09:44 32.0 °C 26.0 °C 1008.4 hPa North 5 km/h 12 km/h 69% 0.00 mm 334.83 W/m2
09:49 33.0 °C 26.0 °C 1008.4 hPa ENE 5 km/h 8 km/h 68% 0.00 mm 338.38 W/m2
09:54 34.0 °C 26.0 °C 1008.2 hPa East 2 km/h 4 km/h 68% 0.00 mm 323.33 W/m2
09:59 34.0 °C 26.0 °C 1008.3 hPa NE 12 km/h 16 km/h 67% 0.00 mm 306.55 W/m2
10:04 33.0 °C 26.0 °C 1008.2 hPa North 8 km/h 12 km/h 68% 0.00 mm 334.27 W/m2
10:09 34.0 °C 26.0 °C 1008.2 hPa NNE 8 km/h 12 km/h 68% 0.00 mm 375.79 W/m2
10:14 34.0 °C 26.0 °C 1008.0 hPa North 5 km/h 8 km/h 67% 0.00 mm 415.30 W/m2
10:19 35.0 °C 27.0 °C 1008.0 hPa Calm   4 km/h 65% 0.00 mm 431.11 W/m2
10:24 35.0 °C 27.0 °C 1007.9 hPa NNE 10 km/h 12 km/h 65% 0.00 mm 439.43 W/m2
10:29 34.0 °C 26.0 °C 1007.9 hPa NE 9 km/h 12 km/h 67% 0.00 mm 439.21 W/m2
10:34 34.0 °C 26.0 °C 1007.8 hPa NNE 8 km/h 12 km/h 67% 0.00 mm 436.54 W/m2
10:39 34.0 °C 26.0 °C 1007.7 hPa East 4 km/h 8 km/h 65% 0.00 mm 454.28 W/m2
10:44 34.0 °C 26.0 °C 1007.7 hPa SE 3 km/h 4 km/h 66% 0.00 mm 472.65 W/m2
10:49 34.0 °C 26.0 °C 1007.8 hPa ENE 2 km/h 4 km/h 66% 0.00 mm 483.86 W/m2
10:54 35.0 °C 27.0 °C 1007.8 hPa ENE 3 km/h 8 km/h 65% 0.00 mm 499.96 W/m2
10:59 35.0 °C 27.0 °C 1007.6 hPa ESE 3 km/h 8 km/h 63% 0.00 mm 495.85 W/m2
11:04 35.0 °C 27.0 °C 1007.6 hPa NE 13 km/h 16 km/h 62% 0.00 mm 468.67 W/m2
11:09 35.0 °C 26.0 °C 1007.5 hPa NE 5 km/h 12 km/h 63% 0.00 mm 476.13 W/m2
11:14 35.0 °C 27.0 °C 1007.5 hPa North 8 km/h 12 km/h 63% 0.00 mm 478.97 W/m2
11:19 35.0 °C 26.0 °C 1007.3 hPa NNE 13 km/h 16 km/h 64% 0.00 mm 470.77 W/m2
11:24 34.0 °C 26.0 °C 1007.3 hPa NNE 9 km/h 16 km/h 65% 0.00 mm 435.19 W/m2
11:29 35.0 °C 27.0 °C 1007.0 hPa NNE 10 km/h 16 km/h 64% 0.00 mm 455.70 W/m2
11:34 35.0 °C 26.0 °C 1007.0 hPa NNE 9 km/h 12 km/h 65% 0.00 mm 449.34 W/m2
11:39 34.0 °C 27.0 °C 1007.0 hPa ESE 8 km/h 8 km/h 65% 0.00 mm 229.82 W/m2
11:44 34.0 °C 26.0 °C 1006.8 hPa ESE 11 km/h 16 km/h 65% 0.00 mm 408.87 W/m2
11:49 35.0 °C 27.0 °C 1006.8 hPa ESE 10 km/h 12 km/h 64% 0.00 mm 451.20 W/m2
11:54 35.0 °C 27.0 °C 1006.9 hPa SE 1 km/h 4 km/h 62% 0.00 mm 461.25 W/m2
11:59 35.0 °C 27.0 °C 1006.9 hPa SSE 14 km/h 16 km/h 67% 0.00 mm 265.15 W/m2
12:04 34.0 °C 27.0 °C 1006.9 hPa South 13 km/h 16 km/h 69% 0.00 mm 395.75 W/m2
12:09 34.0 °C 27.0 °C 1006.7 hPa SSE 11 km/h 12 km/h 70% 0.00 mm 414.47 W/m2
12:14 34.0 °C 27.0 °C 1006.7 hPa South 11 km/h 20 km/h 69% 0.00 mm 434.46 W/m2
12:19 34.0 °C 27.0 °C 1006.5 hPa South 13 km/h 16 km/h 70% 0.00 mm 454.33 W/m2
12:24 34.0 °C 28.0 °C 1006.6 hPa SSE 8 km/h 12 km/h 69% 0.00 mm 480.80 W/m2
12:29 35.0 °C 28.0 °C 1006.5 hPa South 11 km/h 12 km/h 68% 0.00 mm 456.19 W/m2
12:34 34.0 °C 28.0 °C 1006.6 hPa South 5 km/h 8 km/h 68% 0.00 mm 193.56 W/m2
12:39 34.0 °C 28.0 °C 1006.5 hPa SSE 6 km/h 8 km/h 69% 0.00 mm 190.91 W/m2
12:44 34.0 °C 28.0 °C 1006.5 hPa SW 5 km/h 8 km/h 68% 0.00 mm 425.24 W/m2
12:49 34.0 °C 28.0 °C 1006.4 hPa SSW 8 km/h 12 km/h 68% 0.00 mm 466.61 W/m2
12:54 35.0 °C 28.0 °C 1006.3 hPa South 5 km/h 8 km/h 67% 0.00 mm 471.90 W/m2
12:59 35.0 °C 28.0 °C 1006.3 hPa SE 9 km/h 12 km/h 68% 0.00 mm 411.80 W/m2
13:04 35.0 °C 28.0 °C 1006.1 hPa SW 9 km/h 16 km/h 69% 0.00 mm 404.00 W/m2
13:09 34.0 °C 28.0 °C 1006.3 hPa WSW 8 km/h 12 km/h 69% 0.00 mm 340.26 W/m2
13:14 34.0 °C 28.0 °C 1006.3 hPa WNW 8 km/h 8 km/h 69% 0.00 mm 317.51 W/m2
13:19 34.0 °C 28.0 °C 1006.1 hPa WSW 8 km/h 12 km/h 70% 0.00 mm 389.22 W/m2
13:24 34.0 °C 28.0 °C 1006.3 hPa SW 6 km/h 12 km/h 70% 0.00 mm 196.74 W/m2
13:29 34.0 °C 28.0 °C 1006.2 hPa SW 10 km/h 12 km/h 70% 0.00 mm 293.63 W/m2
13:34 34.0 °C 28.0 °C 1006.2 hPa West 11 km/h 16 km/h 70% 0.00 mm 275.94 W/m2
13:39 33.0 °C 28.0 °C 1006.1 hPa NE 13 km/h 20 km/h 73% 0.00 mm 298.89 W/m2
13:44 34.0 °C 28.0 °C 1006.0 hPa WNW 7 km/h 12 km/h 73% 0.00 mm 295.44 W/m2
13:49 34.0 °C 28.0 °C 1006.1 hPa WNW 18 km/h 20 km/h 72% 0.00 mm 202.58 W/m2
13:54 33.0 °C 27.0 °C 1006.0 hPa NW 19 km/h 24 km/h 74% 0.00 mm 160.40 W/m2
13:59 33.0 °C 27.0 °C 1006.0 hPa WNW 12 km/h 16 km/h 73% 0.00 mm 140.83 W/m2
14:04 33.0 °C 27.0 °C 1005.9 hPa NW 15 km/h 16 km/h 73% 0.00 mm 143.52 W/m2
14:09 33.0 °C 27.0 °C 1005.9 hPa NW 17 km/h 20 km/h 73% 0.00 mm 167.84 W/m2
14:14 33.0 °C 27.0 °C 1005.7 hPa NW 17 km/h 20 km/h 74% 0.00 mm 119.03 W/m2
14:19 32.0 °C 27.0 °C 1005.7 hPa WSW 9 km/h 16 km/h 76% 0.00 mm 106.26 W/m2
14:24 32.0 °C 28.0 °C 1005.7 hPa NW 9 km/h 12 km/h 77% 0.00 mm 119.15 W/m2
14:29 32.0 °C 27.0 °C 1005.7 hPa WNW 15 km/h 16 km/h 75% 0.00 mm 119.27 W/m2
14:34 33.0 °C 27.0 °C 1005.7 hPa NW 5 km/h 8 km/h 74% 0.00 mm 114.26 W/m2
14:39 33.0 °C 27.0 °C 1005.7 hPa ESE 2 km/h 4 km/h 72% 0.00 mm 154.14 W/m2
14:44 33.0 °C 27.0 °C 1005.6 hPa North 1 km/h 4 km/h 71% 0.00 mm 197.49 W/m2
14:49 33.0 °C 27.0 °C 1005.6 hPa NW 5 km/h 8 km/h 71% 0.00 mm 337.59 W/m2
14:54 33.0 °C 27.0 °C 1005.3 hPa WNW 5 km/h 8 km/h 71% 0.00 mm 337.23 W/m2
14:59 34.0 °C 28.0 °C 1005.4 hPa North 7 km/h 8 km/h 71% 0.00 mm 222.28 W/m2
15:04 34.0 °C 27.0 °C 1005.4 hPa WNW 9 km/h 12 km/h 70% 0.00 mm 290.10 W/m2
15:09 34.0 °C 28.0 °C 1005.4 hPa Calm     70% 0.00 mm 171.27 W/m2
15:14 34.0 °C 27.0 °C 1005.3 hPa Calm     70% 0.00 mm 151.62 W/m2
15:19 34.0 °C 27.0 °C 1005.4 hPa NNE 7 km/h 8 km/h 70% 0.00 mm 130.41 W/m2
15:24 34.0 °C 27.0 °C 1005.3 hPa Calm     70% 0.00 mm 131.58 W/m2
15:29 34.0 °C 27.0 °C 1005.2 hPa Calm     69% 0.00 mm 137.26 W/m2
15:34 34.0 °C 27.0 °C 1005.1 hPa NNE 8 km/h 12 km/h 70% 0.00 mm 138.92 W/m2
15:39 34.0 °C 27.0 °C 1005.2 hPa SE 5 km/h 8 km/h 68% 0.00 mm 139.31 W/m2
15:44 34.0 °C 27.0 °C 1005.1 hPa SE 10 km/h 16 km/h 66% 0.00 mm 142.96 W/m2
15:49 34.0 °C 26.0 °C 1005.0 hPa ENE 15 km/h 20 km/h 65% 0.00 mm 193.63 W/m2
15:54 34.0 °C 26.0 °C 1005.0 hPa SE 10 km/h 12 km/h 64% 0.00 mm 182.84 W/m2
15:59 34.0 °C 26.0 °C 1005.0 hPa SE 13 km/h 20 km/h 64% 0.00 mm 216.95 W/m2
16:04 34.0 °C 27.0 °C 1004.9 hPa ESE 10 km/h 16 km/h 65% 0.00 mm 316.45 W/m2
16:09 35.0 °C 27.0 °C 1004.9 hPa ESE 8 km/h 12 km/h 65% 0.00 mm 366.25 W/m2
16:14 35.0 °C 27.0 °C 1004.7 hPa ENE 5 km/h 12 km/h 63% 0.00 mm 390.52 W/m2
16:19 35.0 °C 27.0 °C 1004.8 hPa ESE 13 km/h 20 km/h 62% 0.00 mm 401.26 W/m2
16:24 36.0 °C 27.0 °C 1004.9 hPa SE 13 km/h 16 km/h 62% 0.00 mm 393.80 W/m2
16:29 35.0 °C 26.0 °C 1004.8 hPa ESE 10 km/h 16 km/h 62% 0.00 mm 358.51 W/m2
16:34 35.0 °C 26.0 °C 1005.1 hPa WNW 9 km/h 12 km/h 62% 0.00 mm 144.23 W/m2
16:39 34.0 °C 26.0 °C 1004.9 hPa ESE 14 km/h 20 km/h 63% 0.00 mm 245.16 W/m2
16:44 34.0 °C 26.0 °C 1005.0 hPa East 12 km/h 16 km/h 63% 0.00 mm 246.28 W/m2
16:49 34.0 °C 26.0 °C 1005.0 hPa SSE 10 km/h 12 km/h 62% 0.00 mm 150.37 W/m2
16:54 34.0 °C 26.0 °C 1005.0 hPa East 12 km/h 16 km/h 64% 0.00 mm 90.40 W/m2
16:59 34.0 °C 26.0 °C 1005.1 hPa ESE 5 km/h 8 km/h 64% 0.00 mm 70.31 W/m2
17:04 34.0 °C 26.0 °C 1005.3 hPa East 3 km/h 8 km/h 65% 0.00 mm 59.71 W/m2
17:09 34.0 °C 26.0 °C 1005.3 hPa ESE 7 km/h 12 km/h 65% 0.00 mm 58.63 W/m2
17:14 33.0 °C 26.0 °C 1005.4 hPa ESE 10 km/h 16 km/h 65% 0.00 mm 54.10 W/m2
17:19 33.0 °C 26.0 °C 1005.4 hPa East 10 km/h 12 km/h 65% 0.00 mm 58.28 W/m2
17:24 33.0 °C 26.0 °C 1005.4 hPa ESE 1 km/h 4 km/h 65% 0.00 mm 53.16 W/m2
17:29 33.0 °C 26.0 °C 1005.6 hPa ESE 5 km/h 12 km/h 65% 0.00 mm 56.14 W/m2
17:34 33.0 °C 26.0 °C 1005.7 hPa ESE 10 km/h 12 km/h 65% 0.00 mm 54.57 W/m2
17:39 33.0 °C 26.0 °C 1005.6 hPa SE 8 km/h 8 km/h 65% 0.00 mm 62.13 W/m2
17:44 33.0 °C 26.0 °C 1005.8 hPa ESE 1 km/h 4 km/h 65% 0.00 mm 51.33 W/m2
17:49 33.0 °C 26.0 °C 1005.8 hPa East 3 km/h 8 km/h 66% 0.00 mm 30.42 W/m2
17:54 33.0 °C 26.0 °C 1005.8 hPa SE 1 km/h 4 km/h 66% 0.00 mm 17.10 W/m2
17:59 33.0 °C 25.0 °C 1005.8 hPa SE 4 km/h 8 km/h 66% 0.00 mm 11.96 W/m2
18:04 33.0 °C 25.0 °C 1005.8 hPa ESE 6 km/h 8 km/h 66% 0.00 mm 9.43 W/m2
18:09 33.0 °C 26.0 °C 1005.8 hPa ESE 4 km/h 8 km/h 67% 0.00 mm 6.80 W/m2
18:14 32.0 °C 26.0 °C 1005.8 hPa ESE 5 km/h 8 km/h 67% 0.00 mm 4.93 W/m2
18:19 32.0 °C 25.0 °C 1006.0 hPa East 1 km/h 4 km/h 66% 0.00 mm 2.81 W/m2
18:24 32.0 °C 25.0 °C 1006.0 hPa SE 10 km/h 16 km/h 66% 0.00 mm 0.66 W/m2
18:29 32.0 °C 25.0 °C 1006.1 hPa SE 6 km/h 12 km/h 67% 0.00 mm 0.00 W/m2
18:34 32.0 °C 25.0 °C 1006.2 hPa SE 9 km/h 12 km/h 66% 0.00 mm 0.00 W/m2
18:39 32.0 °C 25.0 °C 1006.4 hPa SE 13 km/h 16 km/h 66% 0.00 mm 0.00 W/m2
18:44 32.0 °C 25.0 °C 1006.3 hPa SE 8 km/h 8 km/h 67% 0.00 mm 0.00 W/m2
18:49 32.0 °C 25.0 °C 1006.2 hPa SE 5 km/h 8 km/h 66% 0.00 mm 0.00 W/m2
18:54 32.0 °C 25.0 °C 1006.5 hPa SE 9 km/h 12 km/h 66% 0.00 mm 0.00 W/m2
18:59 32.0 °C 25.0 °C 1006.6 hPa SE 10 km/h 12 km/h 66% 0.00 mm 0.00 W/m2
19:04 32.0 °C 25.0 °C 1006.9 hPa SE 13 km/h 16 km/h 67% 0.00 mm 0.00 W/m2
19:09 32.0 °C 25.0 °C 1007.1 hPa ESE 8 km/h 8 km/h 67% 0.00 mm 0.00 W/m2
19:13 32.0 °C 25.0 °C 1006.9 hPa SE 9 km/h 16 km/h 67% 0.00 mm 0.00 W/m2
19:19 32.0 °C 25.0 °C 1007.5 hPa SSE 7 km/h 12 km/h 68% 0.00 mm 0.00 W/m2
19:24 32.0 °C 25.0 °C 1007.5 hPa ESE 7 km/h 12 km/h 68% 0.00 mm 0.00 W/m2
19:29 32.0 °C 25.0 °C 1007.8 hPa SE 6 km/h 8 km/h 69% 0.00 mm 0.00 W/m2
19:34 32.0 °C 26.0 °C 1007.8 hPa SE 5 km/h 8 km/h 70% 0.00 mm 0.00 W/m2
19:39 32.0 °C 26.0 °C 1007.7 hPa SE 7 km/h 8 km/h 70% 0.00 mm 0.00 W/m2
19:44 32.0 °C 26.0 °C 1007.8 hPa ESE 3 km/h 4 km/h 70% 0.00 mm 0.00 W/m2
19:49 32.0 °C 26.0 °C 1007.8 hPa ESE 8 km/h 12 km/h 70% 0.00 mm 0.00 W/m2
19:54 32.0 °C 26.0 °C 1007.9 hPa SE 12 km/h 12 km/h 70% 0.00 mm 0.00 W/m2
19:59 32.0 °C 26.0 °C 1007.7 hPa ESE 8 km/h 16 km/h 70% 0.00 mm 0.00 W/m2
20:04 32.0 °C 25.0 °C 1007.8 hPa ESE 6 km/h 8 km/h 69% 0.00 mm 0.00 W/m2
20:09 32.0 °C 25.0 °C 1007.9 hPa ESE 12 km/h 24 km/h 69% 0.00 mm 0.00 W/m2
20:14 31.0 °C 25.0 °C 1008.0 hPa ESE 19 km/h 28 km/h 69% 0.00 mm 0.00 W/m2
20:19 31.0 °C 25.0 °C 1007.9 hPa ESE 10 km/h 12 km/h 69% 0.00 mm 0.00 W/m2
20:24 31.0 °C 25.0 °C 1007.9 hPa ESE 12 km/h 12 km/h 69% 0.00 mm 0.00 W/m2
20:29 31.0 °C 25.0 °C 1008.0 hPa ESE 12 km/h 12 km/h 70% 0.00 mm 0.00 W/m2
20:34 31.0 °C 25.0 °C 1008.1 hPa SE 5 km/h 8 km/h 70% 0.00 mm 0.00 W/m2
20:39 31.0 °C 25.0 °C 1008.1 hPa SE 6 km/h 8 km/h 70% 0.00 mm 0.00 W/m2
20:44 31.0 °C 25.0 °C 1008.1 hPa East 3 km/h 8 km/h 71% 0.00 mm 0.00 W/m2
20:49 31.0 °C 25.0 °C 1008.2 hPa ESE 10 km/h 12 km/h 71% 0.00 mm 0.00 W/m2
20:54 31.0 °C 25.0 °C 1008.4 hPa ESE 8 km/h 8 km/h 71% 0.00 mm 0.00 W/m2
20:59 31.0 °C 25.0 °C 1008.4 hPa ESE 5 km/h 8 km/h 71% 0.00 mm 0.00 W/m2
21:04 31.0 °C 25.0 °C 1008.6 hPa SE 8 km/h 12 km/h 71% 0.00 mm 0.00 W/m2
21:09 31.0 °C 25.0 °C 1008.7 hPa ESE 5 km/h 8 km/h 72% 0.00 mm 0.00 W/m2
21:14 31.0 °C 26.0 °C 1008.8 hPa SE 8 km/h 12 km/h 73% 0.00 mm 0.00 W/m2
21:19 31.0 °C 26.0 °C 1008.8 hPa ESE 6 km/h 8 km/h 73% 0.00 mm 0.00 W/m2
21:24 31.0 °C 26.0 °C 1009.0 hPa East 9 km/h 12 km/h 74% 0.00 mm 0.00 W/m2
21:29 31.0 °C 26.0 °C 1009.0 hPa ESE 5 km/h 8 km/h 74% 0.00 mm 0.00 W/m2
21:34 31.0 °C 26.0 °C 1009.0 hPa Calm   4 km/h 74% 0.00 mm 0.00 W/m2
21:39 31.0 °C 26.0 °C 1009.0 hPa Calm     74% 0.00 mm 0.00 W/m2
21:44 31.0 °C 26.0 °C 1009.0 hPa Calm     74% 0.00 mm 0.00 W/m2
21:49 31.0 °C 26.0 °C 1009.0 hPa Calm     74% 0.00 mm 0.00 W/m2
21:54 31.0 °C 26.0 °C 1009.1 hPa Calm     74% 0.00 mm 0.00 W/m2
21:59 31.0 °C 26.0 °C 1009.1 hPa Calm     74% 0.00 mm 0.00 W/m2
22:04 31.0 °C 25.0 °C 1009.0 hPa Calm     73% 0.00 mm 0.00 W/m2
22:09 31.0 °C 25.0 °C 1009.0 hPa Calm     73% 0.00 mm 0.00 W/m2
22:14 31.0 °C 25.0 °C 1009.0 hPa SE 3 km/h 4 km/h 73% 0.00 mm 0.00 W/m2
22:19 31.0 °C 25.0 °C 1009.1 hPa Calm     73% 0.00 mm 0.00 W/m2
22:24 31.0 °C 25.0 °C 1009.3 hPa Calm     73% 0.00 mm 0.00 W/m2
22:29 31.0 °C 25.0 °C 1009.3 hPa Calm     73% 0.00 mm 0.00 W/m2
22:34 31.0 °C 25.0 °C 1009.3 hPa Calm     73% 0.00 mm 0.00 W/m2
22:39 31.0 °C 25.0 °C 1009.4 hPa NE 4 km/h 8 km/h 74% 0.00 mm 0.00 W/m2
22:44 30.0 °C 25.0 °C 1009.5 hPa Calm     74% 0.00 mm 0.00 W/m2
22:49 30.0 °C 25.0 °C 1009.3 hPa Calm     75% 0.00 mm 0.00 W/m2
22:54 30.0 °C 25.0 °C 1009.3 hPa Calm     75% 0.00 mm 0.00 W/m2
22:59 30.0 °C 26.0 °C 1009.2 hPa NNE 2 km/h 4 km/h 77% 0.00 mm 0.00 W/m2
23:04 30.0 °C 26.0 °C 1009.3 hPa NNE 5 km/h 8 km/h 78% 0.00 mm 0.00 W/m2
23:09 30.0 °C 26.0 °C 1009.3 hPa North 2 km/h 4 km/h 78% 0.00 mm 0.00 W/m2
23:14 30.0 °C 26.0 °C 1009.3 hPa Calm     78% 0.00 mm 0.00 W/m2
23:19 30.0 °C 25.0 °C 1009.2 hPa Calm     77% 0.00 mm 0.00 W/m2
23:24 30.0 °C 26.0 °C 1009.1 hPa Calm     78% 0.00 mm 0.00 W/m2
23:29 30.0 °C 26.0 °C 1009.0 hPa Calm     78% 0.00 mm 0.00 W/m2
23:34 30.0 °C 26.0 °C 1008.8 hPa Calm     78% 0.00 mm 0.00 W/m2
23:39 30.0 °C 26.0 °C 1008.8 hPa Calm     78% 0.00 mm 0.00 W/m2
23:44 30.0 °C 26.0 °C 1008.7 hPa Calm     78% 0.00 mm 0.00 W/m2
23:49 30.0 °C 26.0 °C 1008.6 hPa Calm     78% 0.00 mm 0.00 W/m2
23:54 30.0 °C 25.0 °C 1008.7 hPa Calm     78% 0.00 mm 0.00 W/m2
23:59 30.0 °C 26.0 °C 1008.4 hPa Calm     79% 0.00 mm 0.00 W/m2
PIMOHWEATHER Philippines
Compliments of Weather Underground - 2 mb